Flag for U.S.A. Weather past 2 weeks in Toccoa, Georgia, U.S.A.

Now
75 °F

Clear.


Feels Like: 75 °F
Forecast: 64 / 92 °F
Wind: No wind

Location: Clemson-Oconee County Airport

Current Time: Aug 28, 2014 at 2:03:58 AM

Latest Report: Aug 28, 2014 at 12:54 AM


Visibility: 10 mi

Pressure: 30.03 "Hg

Humidity: 82%

Dew point: 69 °F

Location of ToccoaLocation

Historic Weather in Toccoa — Graph

°F

Toccoa temperature yesterday

Maximum temperature yesterday: 89 °F (at 4:54 PM)
Minimum temperature yesterday: 66 °F (at 4:54 AM)
Average temperature yesterday: 77 °F

Past Weeks' High & Low Weather Summary

 TemperatureHumidityPressure
High96 °F (Aug 22, 3:54 PM)87% (Aug 15, 5:54 AM)30.17 "Hg (Aug 15, 5:54 AM)
Low65 °F (Aug 14, 5:54 AM)33% (Aug 13, 4:54 PM)29.82 "Hg (Aug 19, 4:54 PM)
Average79 °F63%30.00 "Hg
* Reported Aug 13 12:54 AM — Aug 28 12:54 AM, Toccoa, Weather by CustomWeather, © 2014

Note: Actual official high and low records may vary slightly from our data, if they occured in-between our weather recording intervals... More about our weather records

Advertising

Toccoa weather history for previous 24 hours

 ConditionsComfort  
Time TempWeatherWind HumidityBarometerVisibility
12:54 AM
Aug 28
75 °FClear.No wind82%30.03 "Hg10 mi
11:54 PM
Aug 27
76 °FClear.No wind74%30.03 "Hg10 mi
10:54 PM76 °FClear.No wind77%30.03 "Hg10 mi
9:54 PM78 °FClear.No wind71%30.03 "Hg10 mi
8:54 PM80 °FSunny.No wind58%30.01 "Hg10 mi
7:54 PM82 °FSunny.No wind44%30.01 "Hg10 mi
6:54 PM87 °FSunny.No wind37%30.00 "Hg10 mi
5:54 PM89 °FSunny.No wind34%30.01 "Hg10 mi
4:54 PM89 °FSunny.No wind34%30.02 "Hg10 mi
3:54 PM88 °FSunny.5 mph35%30.03 "Hg10 mi
2:54 PM87 °FSunny.5 mph40%30.06 "Hg10 mi
1:54 PM84 °FSunny.3 mph45%30.08 "Hg10 mi
12:54 PM83 °FSunny.6 mph46%30.09 "Hg10 mi
11:54 AM81 °FSunny.5 mph45%30.11 "Hg10 mi
10:54 AM79 °FSunny.5 mph52%30.12 "Hg10 mi
9:54 AM76 °FSunny.5 mph60%30.13 "Hg10 mi
8:54 AM72 °FSunny.3 mph71%30.12 "Hg10 mi
7:54 AM68 °FClear.3 mph70%30.11 "Hg10 mi
6:54 AM67 °FClear.No wind73%30.09 "Hg10 mi
5:54 AM67 °FClear.3 mph79%30.07 "Hg10 mi
4:54 AM66 °FClear.No wind75%30.06 "Hg10 mi
3:54 AM69 °FClear.3 mph73%30.06 "Hg10 mi
2:54 AM70 °FClear.5 mph68%30.07 "Hg10 mi
Weather by CustomWeather, © 2014

See weather overviewHow to use our weather pages